Regional Weather Roundup
Issued by NWS

Home | Current Version | Previous Version | Graphics & Text | Print | Product List | Glossary On
Versions: 1 2 3 4 5 6 7 8 9 10 11 12 13 14 15 16 17 18 19 20 21 22 23 24 25 26 27
000
ASUS45 KGTF 281010
RWRMT
MONTANA HOURLY WEATHER ROUNDUP
NATIONAL WEATHER SERVICE GREAT FALLS MT
400 AM MDT TUE APR 28 2015

NOTE: "FAIR" INDICATES FEW OR NO CLOUDS BELOW 12000 FEET WITH NO
SIGNIFICANT WEATHER AND/OR OBSTRUCTIONS TO VISIBILITY.

MTZ001>007-043-281100-
WEST OF THE DIVIDE

CITY           SKY/WX    TMP DP  RH WIND       PRES   REMARKS
KALISPELL      MOSUNNY   33  29  85 CALM      30.20F
MISSOULA       PTCLDY    38  34  85 CALM      30.25S
BUTTE          CLEAR     31  28  89 SE5       30.28F
DEER LODGE       N/A     28  27  93 CALM      30.30F
EUREKA           N/A     37  30  75 CALM      30.21S
HAMILTON         N/A     43  30  61 S10       30.23S
LIBBY            N/A     36  30  80 CALM      30.21S
$$

MTZ008-052>055-281100-
SOUTHWEST MONTANA

CITY           SKY/WX    TMP DP  RH WIND       PRES   REMARKS
BOZEMAN        CLEAR     36  30  79 SE5       30.28R
DILLON         CLEAR     36  29  75 S12       30.27S WCI  28
$$

MTZ009-010-012-014-046-048-049-054-281100-
EAST SLOPES AND CENTRAL MONTANA

CITY           SKY/WX    TMP DP  RH WIND       PRES   REMARKS
CUT BANK       CLEAR     37  28  70 CALM      30.17S
GREAT FALLS    CLEAR     43  31  62 S13       30.18F
MALMSTROM AFB  CLEAR     40  33  76 S5        30.19S
HELENA         CLEAR     37  30  75 CALM      30.24S
$$

MTZ011-013-016-021-045-047-050-051-281100-
NORTH CENTRAL MONTANA

CITY           SKY/WX    TMP DP  RH WIND       PRES   REMARKS
HAVRE          CLEAR     36  29  75 CALM      30.16S
LEWISTOWN      CLEAR     36  29  75 SE9       30.23S WCI  29
CHINOOK          N/A     45  30  57 NE5       30.18S
FORT BENTON      N/A     39  30  70 CALM      30.20S
$$

MTZ017>020-022>042-056>058-061-062-281100-
EASTERN PLAINS

CITY           SKY/WX    TMP DP  RH WIND       PRES   REMARKS
BAKER          CLEAR     29  27  92 CALM      30.33R FOG
BILLINGS       CLEAR     42  35  76 SW9       30.26S
GLASGOW        CLEAR     38  33  82 SE9       30.26S WCI  31
JORDAN           N/A     42  35  76 CALM      30.27S
LIVINGSTON     CLEAR     34  29  82 NW10      30.28R WCI  26
MILES CITY     CLEAR     36  33  89 S8        30.30S WCI  30
SIDNEY         CLEAR     34  30  86 CALM      30.31S
WOLF POINT     CLEAR     33  30  88 CALM      30.29S
BIG TIMBER       N/A     36  30  80 SW5       30.28S
FORSYTH          N/A     43  36  75 SE5       30.28F
PLENTYWOOD       N/A     37  34  87 E5        30.27S
POPLAR           N/A     37  36  93 CALM      30.30R
$$

REGIONAL REPORTS...DAKOTAS

CITY           SKY/WX    TMP DP  RH WIND       PRES   REMARKS
WILLISTON      CLEAR     37  34  89 S3        30.30R
MINOT          CLEAR     37  34  89 SW8       30.27S WCI  31
DICKINSON      CLEAR     31  29  92 W7        30.30R WCI  24
BEACH          PTSUNNY   32  32 100 S3        30.32S
CROSBY         FAIR      37  37 100 S13       30.27S WCI  29
WATFORD CITY   FAIR      32  32 100 SW5       30.29S
BISMARCK       CLEAR     33  32  96 SW3       30.32S FOG
GRAND FORKS    FOG       43  43 100 N7        30.28R VSB 1/2
FARGO          MOCLDY    45  43  93 N9        30.26R
BUFFALO SD       N/A     33  31  92 W6        30.27S WCI  28
RAPID CITY     CLOUDY    35  33  92 NW3       30.34S
$$

REGIONAL REPORTS...WYOMING/IDAHO/WASHINGTON

CITY           SKY/WX    TMP DP  RH WIND       PRES   REMARKS
GILLETTE       CLEAR     37  32  82 S6        30.30F
SHERIDAN       CLEAR     31  28  89 CALM      30.29F
BUFFALO WY     CLEAR     37  28  70 W7        30.30F WCI  32
CODY           CLEAR     37  32  81 CALM      30.29S
YELLOWSTONE LA   N/A     24  21  88 CALM      30.37S
IDAHO FALLS    PTCLDY    32  29  88 N5        30.27S
SALMON         CLEAR     34  30  86 CALM      30.27S
BOISE          CLEAR     52  30  43 SE12      30.17F
SPOKANE        MOCLDY    51  35  54 E10       30.11F
$$

REGIONAL REPORTS...ALBERTA

CITY           SKY/WX    TMP DP  RH WIND       PRES   REMARKS
EDMONTON       CLEAR     43  30  61 SW8       30.00S
CALGARY        MOCLDY    43  30  61 S7        30.08F
LETHBRIDGE     CLEAR     39  32  75 S9        30.12F
MEDICINE HAT   CLEAR     39  30  70 SW9       30.12S
$$

REGIONAL REPORTS...SASKATCHEWAN

CITY           SKY/WX    TMP DP  RH WIND       PRES   REMARKS
SWIFT CURRENT  CLEAR     43  30  61 S18       30.15S
REGINA         PTCLDY    36  32  87 S7        30.22S WCI  30
SASKATOON      PTCLDY    39  32  75 S9        30.12S
$$



USA.gov is the U.S. government's official web portal to all federal, state and local government web resources and services.